TimeCDT,TemperatureF,Dew PointF,Humidity,Sea Level PressureIn,VisibilityMPH,Wind Direction,Wind SpeedMPH,Gust SpeedMPH,PrecipitationIn,Events,Conditions,WindDirDegrees,DateUTC
12:03 AM,51.8,51.8,100,30.03,0.5,North,3.5,-,N/A,Fog,Fog,360,2013-10-22 05:03:00
12:19 AM,51.8,51.8,100,30.02,2.0,North,3.5,-,N/A,,Partly Cloudy,10,2013-10-22 05:19:00
12:30 AM,51.8,51.8,100,30.02,0.8,NNE,3.5,-,N/A,,Partly Cloudy,20,2013-10-22 05:30:00
12:43 AM,55.4,55.4,100,30.03,2.0,North,3.5,-,N/A,,Clear,350,2013-10-22 05:43:00
12:50 AM,55.4,55.4,100,30.02,7.0,North,3.5,-,N/A,,Scattered Clouds,360,2013-10-22 05:50:00
12:53 AM,55.9,55.0,97,30.04,7.0,North,3.5,-,N/A,,Scattered Clouds,360,2013-10-22 05:53:00
1:44 AM,55.4,53.6,94,30.01,2.5,Calm,Calm,-,N/A,,Scattered Clouds,0,2013-10-22 06:44:00
1:53 AM,54.0,53.1,97,30.03,2.5,Calm,Calm,-,N/A,,Mostly Cloudy,0,2013-10-22 06:53:00
2:04 AM,53.6,53.6,100,30.01,3.0,Calm,Calm,-,N/A,,Mostly Cloudy,0,2013-10-22 07:04:00
2:47 AM,55.4,53.6,94,30.00,1.5,Calm,Calm,-,N/A,,Mostly Cloudy,0,2013-10-22 07:47:00
2:53 AM,55.0,53.1,93,30.02,1.0,Calm,Calm,-,N/A,,Scattered Clouds,0,2013-10-22 07:53:00
3:03 AM,55.4,55.4,100,30.00,3.0,Calm,Calm,-,N/A,,Partly Cloudy,0,2013-10-22 08:03:00
3:30 AM,51.8,51.8,100,30.00,2.0,Calm,Calm,-,N/A,,Clear,0,2013-10-22 08:30:00
3:44 AM,53.6,51.8,94,30.01,1.2,NW,3.5,-,N/A,,Partly Cloudy,320,2013-10-22 08:44:00
3:53 AM,54.0,53.1,97,30.04,1.2,NW,3.5,-,N/A,,Scattered Clouds,310,2013-10-22 08:53:00
4:18 AM,55.4,53.6,94,30.00,3.0,Calm,Calm,-,N/A,,Mostly Cloudy,0,2013-10-22 09:18:00
4:44 AM,51.8,51.8,100,30.00,1.5,Calm,Calm,-,N/A,,Partly Cloudy,0,2013-10-22 09:44:00
4:48 AM,51.8,51.8,100,30.00,0.5,Calm,Calm,-,N/A,Fog,Fog,0,2013-10-22 09:48:00
4:53 AM,52.0,52.0,100,30.02,0.5,Calm,Calm,-,N/A,Fog,Fog,0,2013-10-22 09:53:00
5:04 AM,50.0,50.0,100,30.00,1.2,Calm,Calm,-,N/A,,Clear,0,2013-10-22 10:04:00
5:15 AM,50.0,48.2,94,30.00,0.8,North,3.5,-,N/A,,Scattered Clouds,360,2013-10-22 10:15:00
5:32 AM,53.6,51.8,94,30.00,2.5,Calm,Calm,-,N/A,,Mostly Cloudy,0,2013-10-22 10:32:00
5:53 AM,53.1,52.0,96,30.04,2.0,Calm,Calm,-,N/A,,Mostly Cloudy,0,2013-10-22 10:53:00
6:09 AM,53.6,53.6,100,30.03,3.0,NNW,4.6,-,N/A,,Overcast,340,2013-10-22 11:09:00
6:53 AM,57.0,55.0,93,30.05,10.0,North,6.9,-,N/A,,Overcast,10,2013-10-22 11:53:00
7:53 AM,55.9,54.0,93,30.06,10.0,North,9.2,-,N/A,,Overcast,10,2013-10-22 12:53:00
8:53 AM,57.9,54.0,87,30.07,10.0,North,11.5,-,N/A,,Overcast,10,2013-10-22 13:53:00
9:53 AM,60.1,55.0,83,30.08,10.0,North,6.9,-,N/A,,Overcast,360,2013-10-22 14:53:00
10:08 AM,60.8,55.4,82,30.06,10.0,North,8.1,-,N/A,,Overcast,360,2013-10-22 15:08:00
10:41 AM,64.4,55.4,73,30.05,10.0,North,8.1,-,N/A,,Partly Cloudy,10,2013-10-22 15:41:00
10:53 AM,64.0,55.0,73,30.07,10.0,North,5.8,-,N/A,,Partly Cloudy,10,2013-10-22 15:53:00
11:53 AM,66.0,55.9,70,30.07,10.0,North,6.9,-,N/A,,Overcast,10,2013-10-22 16:53:00
12:53 PM,68.0,55.9,65,30.05,10.0,NNW,5.8,-,N/A,,Overcast,340,2013-10-22 17:53:00
1:53 PM,71.1,55.0,57,30.03,10.0,Variable,4.6,-,N/A,,Partly Cloudy,0,2013-10-22 18:53:00
2:53 PM,73.0,55.0,53,30.01,10.0,NNW,8.1,-,N/A,,Partly Cloudy,340,2013-10-22 19:53:00
3:53 PM,73.0,52.0,48,30.01,10.0,Variable,6.9,17.3,N/A,,Partly Cloudy,0,2013-10-22 20:53:00
4:53 PM,71.1,48.9,45,30.01,10.0,NNW,5.8,-,N/A,,Clear,330,2013-10-22 21:53:00
5:53 PM,64.9,53.1,65,30.01,10.0,NW,4.6,-,N/A,,Clear,320,2013-10-22 22:53:00
6:53 PM,55.0,52.0,89,30.01,10.0,NW,3.5,-,N/A,,Clear,320,2013-10-22 23:53:00
7:53 PM,50.0,48.0,93,30.02,10.0,Calm,Calm,-,N/A,,Clear,0,2013-10-23 00:53:00
8:53 PM,46.0,44.1,93,30.03,10.0,Calm,Calm,-,N/A,,Clear,0,2013-10-23 01:53:00
9:53 PM,46.0,46.0,100,30.05,9.0,Calm,Calm,-,N/A,,Clear,0,2013-10-23 02:53:00
10:53 PM,45.0,44.1,97,30.06,8.0,South,3.5,-,N/A,,Clear,180,2013-10-23 03:53:00
11:53 PM,44.1,43.0,96,30.06,7.0,Calm,Calm,-,N/A,,Clear,0,2013-10-23 04:53:00